RJA814 OJAI-ORBI

Flight info

Callsign RJA814
Flight time N/A
Altitude 37000
Route LOSA1Z LOSAR DCT ASLON DCT DAXEN L200 SILBO DCT BGD
Aircraft A320/M-SDE3FGHIRWY/LB1

Departure

Time 2026-04-28 19:16
Airport Queen Alia International Airport (OJAI)

Arrival

Time N/A
Airport Baghdad International Airport / New Al Muthana Air Base (ORBI)
Time Latitude Longitude Altitude Speed Heading
2026-04-28 18:41 31.71958 35.99066 2418 ft 0 kts 171°
2026-04-28 19:03 31.71966 35.99065 2418 ft 2 kts 168°
2026-04-28 19:03 31.71982 35.99061 2416 ft 2 kts 167°
2026-04-28 19:03 31.71998 35.99056 2417 ft 2 kts 160°
2026-04-28 19:03 31.72013 35.99048 2417 ft 2 kts 123°
2026-04-28 19:04 31.72017 35.99032 2415 ft 1 kts 82°
2026-04-28 19:04 31.72016 35.99029 2415 ft 0 kts 81°
2026-04-28 19:09 31.72017 35.99032 2415 ft 4 kts 81°
2026-04-28 19:09 31.72028 35.99114 2418 ft 13 kts 80°
2026-04-28 19:09 31.72065 35.99247 2416 ft 19 kts 70°
2026-04-28 19:09 31.72091 35.99405 2417 ft 20 kts 81°
2026-04-28 19:10 31.72029 35.99502 2418 ft 16 kts 166°
2026-04-28 19:10 31.71920 35.99528 2418 ft 9 kts 145°
2026-04-28 19:10 31.71939 35.99586 2418 ft 12 kts 74°
2026-04-28 19:10 31.71959 35.99714 2418 ft 18 kts 80°
2026-04-28 19:11 31.71982 35.99875 2418 ft 22 kts 80°
2026-04-28 19:11 31.72008 36.00058 2418 ft 23 kts 81°
2026-04-28 19:11 31.72037 36.00252 2418 ft 25 kts 80°
2026-04-28 19:11 31.72057 36.00391 2418 ft 13 kts 81°
2026-04-28 19:12 31.72058 36.00402 2418 ft 0 kts 81°
2026-04-28 19:12 31.72058 36.00403 2418 ft 1 kts 81°
2026-04-28 19:12 31.72067 36.00467 2418 ft 19 kts 80°
2026-04-28 19:12 31.72098 36.00657 2418 ft 25 kts 78°
2026-04-28 19:13 31.72122 36.00852 2418 ft 24 kts 77°
2026-04-28 19:13 31.72151 36.01047 2418 ft 25 kts 79°
2026-04-28 19:13 31.72181 36.01250 2418 ft 26 kts 81°
2026-04-28 19:13 31.72211 36.01462 2418 ft 27 kts 80°
2026-04-28 19:14 31.72243 36.01671 2418 ft 23 kts 79°
2026-04-28 19:14 31.72211 36.01802 2418 ft 17 kts 159°
2026-04-28 19:14 31.72095 36.01827 2419 ft 17 kts 169°
2026-04-28 19:14 31.71992 36.01799 2421 ft 16 kts 243°
2026-04-28 19:15 31.71973 36.01727 2421 ft 0 kts 260°
2026-04-28 19:15 31.71971 36.01716 2421 ft 13 kts 261°
2026-04-28 19:15 31.71919 36.01354 2419 ft 75 kts 261°
2026-04-28 19:15 31.71848 36.00864 2415 ft 109 kts 260°
2026-04-28 19:16 31.71638 35.99394 2451 ft 158 kts 262°
2026-04-28 19:16 31.71452 35.98130 2884 ft 159 kts 266°
2026-04-28 19:16 31.71461 35.96805 3274 ft 162 kts 276°
2026-04-28 19:16 31.71542 35.95487 3784 ft 163 kts 277°
2026-04-28 19:17 31.71630 35.94101 4087 ft 177 kts 277°
2026-04-28 19:17 31.71721 35.92593 4393 ft 193 kts 276°
2026-04-28 19:17 31.71888 35.90955 4600 ft 213 kts 287°
2026-04-28 19:17 31.72530 35.89305 4800 ft 234 kts 313°
2026-04-28 19:18 31.73964 35.88384 5314 ft 245 kts 352°
2026-04-28 19:18 31.75702 35.88530 5901 ft 258 kts
2026-04-28 19:18 31.77520 35.88831 6554 ft 268 kts
2026-04-28 19:18 31.79372 35.89072 7248 ft 273 kts
2026-04-28 19:19 31.81268 35.89299 8044 ft 275 kts
2026-04-28 19:19 31.83082 35.90046 8815 ft 279 kts 31°
2026-04-28 19:19 31.84631 35.91424 9625 ft 281 kts 38°
2026-04-28 19:19 31.86169 35.92887 10257 ft 288 kts 38°
2026-04-28 19:20 31.87764 35.94420 10631 ft 304 kts 38°
2026-04-28 19:20 31.89445 35.96042 10944 ft 321 kts 38°
2026-04-28 19:20 31.91216 35.97752 11228 ft 337 kts 38°
2026-04-28 19:20 31.93070 35.99538 11640 ft 348 kts 38°
2026-04-28 19:21 31.94956 36.01353 12258 ft 352 kts 38°
2026-04-28 19:21 31.96861 36.03183 12834 ft 354 kts 38°
2026-04-28 19:21 31.98754 36.05048 13008 ft 356 kts 43°
2026-04-28 19:21 32.00382 36.07244 13038 ft 357 kts 54°
2026-04-28 19:22 32.01614 36.09781 13038 ft 358 kts 65°
2026-04-28 19:22 32.02277 36.11570 13040 ft 359 kts 65°
2026-04-28 19:22 32.03614 36.15169 13036 ft 359 kts 65°
2026-04-28 19:22 32.04619 36.17865 13029 ft 359 kts 65°
2026-04-28 19:23 32.05423 36.20021 13028 ft 358 kts 65°
2026-04-28 19:23 32.06441 36.22744 13024 ft 358 kts 65°
2026-04-28 19:23 32.07596 36.25830 13020 ft 358 kts 65°
2026-04-28 19:23 32.08632 36.28606 13016 ft 359 kts 65°
2026-04-28 19:24 32.09635 36.31306 13011 ft 359 kts 65°
2026-04-28 19:24 32.10636 36.33999 13004 ft 359 kts 65°
2026-04-28 19:24 32.11637 36.36699 13004 ft 360 kts 65°
2026-04-28 19:24 32.12638 36.39402 12998 ft 360 kts 65°
2026-04-28 19:25 32.13641 36.42110 12996 ft 360 kts 65°
2026-04-28 19:25 32.14639 36.44809 12995 ft 360 kts 65°
2026-04-28 19:25 32.15642 36.47528 12997 ft 361 kts 65°
2026-04-28 19:25 32.16699 36.50213 12993 ft 361 kts 63°
2026-04-28 19:26 32.17851 36.52843 12994 ft 361 kts 60°
2026-04-28 19:26 32.19048 36.55441 12991 ft 361 kts 60°
2026-04-28 19:26 32.20172 36.58092 12996 ft 362 kts 70°
2026-04-28 19:26 32.20631 36.61011 12993 ft 364 kts 88°
2026-04-28 19:27 32.20605 36.64009 13256 ft 367 kts 90°
2026-04-28 19:27 32.20567 36.67035 13869 ft 370 kts 90°
2026-04-28 19:27 32.20525 36.70105 14403 ft 375 kts 90°
2026-04-28 19:27 32.20481 36.73197 14916 ft 379 kts 90°
2026-04-28 19:28 32.20437 36.76325 15418 ft 383 kts 90°
2026-04-28 19:28 32.20392 36.79492 15938 ft 387 kts 90°
2026-04-28 19:28 32.20599 36.82668 16468 ft 389 kts 79°
2026-04-28 19:28 32.21329 36.85749 17002 ft 392 kts 67°
2026-04-28 19:29 32.22567 36.88624 17540 ft 394 kts 56°
2026-04-28 19:29 32.23634 36.90363 17898 ft 396 kts 50°
2026-04-28 19:29 32.25921 36.93821 18585 ft 401 kts 51°
2026-04-28 19:29 32.27640 36.96428 19090 ft 404 kts 51°
2026-04-28 19:30 32.29371 36.99062 19617 ft 407 kts 51°
2026-04-28 19:30 32.31090 37.01685 20143 ft 410 kts 51°
2026-04-28 19:30 32.32840 37.04353 20666 ft 412 kts 51°
2026-04-28 19:30 32.34605 37.07042 21161 ft 415 kts 51°
2026-04-28 19:31 32.36374 37.09747 21646 ft 417 kts 51°
2026-04-28 19:31 32.38157 37.12479 22110 ft 420 kts 51°
2026-04-28 19:31 32.39945 37.15220 22561 ft 423 kts 51°
2026-04-28 19:31 32.41748 37.17983 23008 ft 426 kts 51°
2026-04-28 19:32 32.43567 37.20767 23446 ft 428 kts 51°
2026-04-28 19:32 32.45398 37.23562 23822 ft 431 kts 51°
2026-04-28 19:32 32.47242 37.26376 24154 ft 434 kts 51°
2026-04-28 19:32 32.49095 37.29209 24481 ft 437 kts 51°
2026-04-28 19:33 32.50959 37.32063 24799 ft 440 kts 51°
2026-04-28 19:33 32.52838 37.34947 25108 ft 443 kts 51°
2026-04-28 19:33 32.54731 37.37854 25410 ft 447 kts 51°
2026-04-28 19:33 32.56635 37.40781 25704 ft 450 kts 51°
2026-04-28 19:34 32.58548 37.43731 26000 ft 453 kts 51°
2026-04-28 19:34 32.60477 37.46705 26305 ft 456 kts 51°
2026-04-28 19:34 32.62417 37.49692 26594 ft 459 kts 51°
2026-04-28 19:34 32.64372 37.52700 26897 ft 462 kts 51°
2026-04-28 19:35 32.66338 37.55727 27191 ft 465 kts 51°
2026-04-28 19:35 32.68315 37.58779 27493 ft 467 kts 51°
2026-04-28 19:35 32.70274 37.61808 27783 ft 470 kts 51°
2026-04-28 19:35 32.72270 37.64895 28073 ft 473 kts 52°
2026-04-28 19:36 32.74101 37.68151 28416 ft 475 kts 60°
2026-04-28 19:36 32.75505 37.71692 28861 ft 474 kts 70°
2026-04-28 19:36 32.76596 37.75390 29265 ft 474 kts 71°
2026-04-28 19:36 32.77679 37.79089 29657 ft 475 kts 71°
2026-04-28 19:37 32.78769 37.82791 30055 ft 475 kts 71°
2026-04-28 19:37 32.79139 37.84047 30165 ft 475 kts 71°
2026-04-28 19:37 32.80947 37.90219 30723 ft 476 kts 71°
2026-04-28 19:37 32.82012 37.93943 31063 ft 476 kts 72°
2026-04-28 19:38 32.83065 37.97682 31397 ft 477 kts 72°
2026-04-28 19:38 32.84111 38.01423 31734 ft 477 kts 72°
2026-04-28 19:38 32.85158 38.05171 32071 ft 478 kts 72°
2026-04-28 19:38 32.86210 38.08920 32396 ft 479 kts 72°
2026-04-28 19:39 32.87274 38.12679 32729 ft 480 kts 72°
2026-04-28 19:39 32.88347 38.16443 33052 ft 481 kts 72°
2026-04-28 19:39 32.89424 38.20206 33385 ft 481 kts 71°
2026-04-28 19:39 32.90504 38.23981 33730 ft 482 kts 71°
2026-04-28 19:40 32.91582 38.27757 34059 ft 482 kts 71°
2026-04-28 19:40 32.92296 38.30259 34239 ft 482 kts 71°
2026-04-28 19:40 32.93372 38.34049 34507 ft 483 kts 72°
2026-04-28 19:40 32.94445 38.37839 34768 ft 483 kts 72°
2026-04-28 19:41 32.95518 38.41632 35020 ft 483 kts 72°
2026-04-28 19:41 32.96591 38.45423 35264 ft 484 kts 72°
2026-04-28 19:41 32.97664 38.49227 35498 ft 484 kts 72°
2026-04-28 19:41 32.98734 38.53031 35722 ft 485 kts 72°
2026-04-28 19:42 32.99807 38.56847 35940 ft 485 kts 72°
2026-04-28 19:42 33.00881 38.60662 36154 ft 486 kts 72°
2026-04-28 19:42 33.01951 38.64478 36365 ft 486 kts 72°
2026-04-28 19:42 33.03020 38.68300 36540 ft 487 kts 71°
2026-04-28 19:43 33.04093 38.72145 36690 ft 489 kts 71°
2026-04-28 19:43 33.05167 38.75992 36870 ft 490 kts 71°
2026-04-28 19:43 33.06245 38.79855 36980 ft 493 kts 72°
2026-04-28 19:43 33.07330 38.83749 36993 ft 498 kts 72°
2026-04-28 19:44 33.09414 38.91693 36983 ft 504 kts 79°
2026-04-28 19:44 33.10007 38.99973 36985 ft 501 kts 92°
2026-04-28 19:45 33.10011 39.08294 36983 ft 502 kts 92°
2026-04-28 19:45 33.10019 39.16618 36981 ft 502 kts 92°
2026-04-28 19:46 33.10020 39.24902 36981 ft 502 kts 92°
2026-04-28 19:46 33.10016 39.33227 36977 ft 502 kts 92°
2026-04-28 19:47 33.09997 39.41563 36975 ft 503 kts 92°
2026-04-28 19:47 33.09976 39.49898 36971 ft 503 kts 92°
2026-04-28 19:48 33.09947 39.58238 36971 ft 503 kts 92°
2026-04-28 19:48 33.09910 39.66573 36968 ft 503 kts 92°
2026-04-28 19:49 33.09877 39.74906 36964 ft 502 kts 92°
2026-04-28 19:49 33.09839 39.83241 36967 ft 502 kts 92°
2026-04-28 19:50 33.09758 39.95738 36961 ft 502 kts 93°
2026-04-28 19:51 33.09702 40.04070 36960 ft 502 kts 93°
2026-04-28 19:51 33.09638 40.12395 36956 ft 502 kts 93°
2026-04-28 19:52 33.09570 40.20724 36955 ft 502 kts 93°
2026-04-28 19:52 33.09497 40.29050 36950 ft 502 kts 93°
2026-04-28 19:53 33.09411 40.37329 36950 ft 502 kts 93°
2026-04-28 19:53 33.09320 40.45655 36946 ft 502 kts 93°
2026-04-28 19:54 33.09229 40.53985 36945 ft 502 kts 93°
2026-04-28 19:54 33.09136 40.62312 36943 ft 502 kts 93°
2026-04-28 19:55 33.09028 40.70644 36944 ft 503 kts 94°
2026-04-28 19:55 33.08920 40.78976 36953 ft 502 kts 94°
2026-04-28 19:56 33.08811 40.87306 36948 ft 502 kts 94°
2026-04-28 19:56 33.08686 40.95627 36949 ft 502 kts 94°
2026-04-28 19:57 33.08569 41.03956 36946 ft 502 kts 94°
2026-04-28 19:57 33.08436 41.12295 36944 ft 503 kts 94°
2026-04-28 19:58 33.08281 41.20636 36942 ft 503 kts 95°
2026-04-28 19:58 33.07984 41.28964 36940 ft 503 kts 96°
2026-04-28 19:59 33.07605 41.37228 36940 ft 502 kts 96°
2026-04-28 19:59 33.07232 41.45561 36936 ft 503 kts 96°
2026-04-28 20:00 33.06887 41.53877 36931 ft 503 kts 96°
2026-04-28 20:00 33.06549 41.62213 36926 ft 503 kts 96°
2026-04-28 20:01 33.06193 41.70534 36922 ft 503 kts 96°
2026-04-28 20:01 33.05824 41.78870 36916 ft 503 kts 96°
2026-04-28 20:02 33.05460 41.87193 36913 ft 503 kts 96°
2026-04-28 20:02 33.05094 41.95531 36784 ft 500 kts 96°
2026-04-28 20:02 33.04911 41.99637 36534 ft 492 kts 96°
2026-04-28 20:03 33.04729 42.03697 36286 ft 491 kts 96°
2026-04-28 20:03 33.04540 42.07755 36039 ft 492 kts 96°
2026-04-28 20:03 33.04350 42.11821 35794 ft 492 kts 96°
2026-04-28 20:03 33.04159 42.15899 35551 ft 492 kts 96°
2026-04-28 20:04 33.03972 42.19955 35178 ft 490 kts 96°
2026-04-28 20:04 33.03783 42.24014 34614 ft 490 kts 96°
2026-04-28 20:04 33.03593 42.28072 34058 ft 491 kts 96°
2026-04-28 20:04 33.03398 42.32133 33430 ft 491 kts 96°
2026-04-28 20:05 33.03206 42.36190 32909 ft 488 kts 96°
2026-04-28 20:05 33.03035 42.40163 32397 ft 485 kts 95°
2026-04-28 20:05 33.02877 42.44172 31860 ft 483 kts 95°
2026-04-28 20:05 33.02727 42.48159 31318 ft 481 kts 95°
2026-04-28 20:06 33.02577 42.52130 30760 ft 479 kts 95°
2026-04-28 20:06 33.02423 42.56088 30207 ft 477 kts 95°
2026-04-28 20:06 33.02269 42.60025 29595 ft 475 kts 95°
2026-04-28 20:06 33.02112 42.63942 29043 ft 471 kts 95°
2026-04-28 20:07 33.01950 42.67822 28490 ft 467 kts 95°
2026-04-28 20:07 33.01842 42.70375 28116 ft 465 kts 95°
2026-04-28 20:07 33.01623 42.75500 27376 ft 461 kts 95°
2026-04-28 20:07 33.01460 42.79304 26827 ft 458 kts 95°
2026-04-28 20:08 33.01297 42.83084 26283 ft 456 kts 95°
2026-04-28 20:08 33.01134 42.86854 25738 ft 454 kts 95°
2026-04-28 20:08 33.00972 42.90606 25201 ft 452 kts 95°
2026-04-28 20:08 33.00813 42.94342 24669 ft 451 kts 95°
2026-04-28 20:09 33.00653 42.98076 24138 ft 450 kts 95°
2026-04-28 20:09 33.00490 43.01792 23624 ft 449 kts 95°
2026-04-28 20:09 33.00326 43.05498 23060 ft 448 kts 95°
2026-04-28 20:09 33.00163 43.09181 22576 ft 444 kts 95°
2026-04-28 20:10 32.99995 43.12852 22095 ft 441 kts 95°
2026-04-28 20:10 32.99827 43.16478 21613 ft 437 kts 95°
2026-04-28 20:10 32.99658 43.20090 21135 ft 435 kts 95°
2026-04-28 20:10 32.99491 43.23671 20662 ft 433 kts 94°
2026-04-28 20:11 32.99327 43.27242 20177 ft 431 kts 94°
2026-04-28 20:11 32.99164 43.30802 19678 ft 429 kts 94°
2026-04-28 20:11 32.99000 43.34343 19179 ft 428 kts 94°
2026-04-28 20:11 32.98835 43.37836 18666 ft 426 kts 94°
2026-04-28 20:12 32.98667 43.41359 18140 ft 425 kts 94°
2026-04-28 20:12 32.98499 43.44850 17691 ft 420 kts 94°
2026-04-28 20:12 32.98400 43.48328 17101 ft 419 kts 88°
2026-04-28 20:12 32.98576 43.50609 16788 ft 415 kts 83°
2026-04-28 20:13 32.99058 43.55133 15969 ft 403 kts 83°
2026-04-28 20:13 32.99407 43.58390 15403 ft 388 kts 83°
2026-04-28 20:13 32.99739 43.61508 14892 ft 373 kts 83°
2026-04-28 20:13 33.00055 43.64520 14399 ft 360 kts 83°
2026-04-28 20:14 33.00359 43.67435 13906 ft 348 kts 83°
2026-04-28 20:14 33.00657 43.70297 13401 ft 349 kts 82°
2026-04-28 20:14 33.00956 43.73172 12927 ft 348 kts 82°
2026-04-28 20:14 33.01255 43.76018 12555 ft 345 kts 82°
2026-04-28 20:15 33.01550 43.78846 12079 ft 345 kts 82°
2026-04-28 20:15 33.01844 43.81688 11596 ft 345 kts 82°
2026-04-28 20:15 33.02140 43.84528 11108 ft 345 kts 82°
2026-04-28 20:15 33.02435 43.87368 10625 ft 346 kts 82°
2026-04-28 20:16 33.02723 43.90148 10344 ft 340 kts 82°
2026-04-28 20:16 33.03004 43.92862 10222 ft 328 kts 82°
2026-04-28 20:16 33.03280 43.95553 10102 ft 318 kts 82°
2026-04-28 20:16 33.03540 43.98103 9901 ft 312 kts 82°
2026-04-28 20:17 33.03802 44.00677 9505 ft 312 kts 82°
2026-04-28 20:17 33.04060 44.03221 9214 ft 308 kts 82°
2026-04-28 20:17 33.04319 44.05752 8773 ft 305 kts 82°
2026-04-28 20:17 33.04575 44.08249 8140 ft 303 kts 82°
2026-04-28 20:18 33.04828 44.10735 7537 ft 301 kts 82°
2026-04-28 20:18 33.04993 44.12368 7171 ft 298 kts 82°
2026-04-28 20:18 33.05322 44.15626 6471 ft 293 kts 82°
2026-04-28 20:18 33.05562 44.18015 5991 ft 288 kts 82°
2026-04-28 20:19 33.05798 44.20385 5532 ft 287 kts 82°
2026-04-28 20:19 33.06034 44.22735 5070 ft 284 kts 82°
2026-04-28 20:19 33.06268 44.25076 4620 ft 287 kts 82°
2026-04-28 20:19 33.06504 44.27423 4430 ft 280 kts 82°
2026-04-28 20:20 33.06732 44.29681 4344 ft 269 kts 82°
2026-04-28 20:20 33.06948 44.31830 4235 ft 260 kts 82°
2026-04-28 20:20 33.07364 44.33862 4125 ft 246 kts 57°
2026-04-28 20:20 33.08536 44.35194 4012 ft 227 kts 20°
2026-04-28 20:21 33.10044 44.35477 3628 ft 223 kts 345°
2026-04-28 20:21 33.11448 44.34720 3212 ft 223 kts 327°
2026-04-28 20:21 33.12796 44.33790 2885 ft 222 kts 328°
2026-04-28 20:21 33.14108 44.32893 2595 ft 213 kts 328°
2026-04-28 20:22 33.15362 44.32037 2326 ft 203 kts 328°
2026-04-28 20:22 33.16574 44.31208 2070 ft 197 kts 329°
2026-04-28 20:22 33.17734 44.30415 1810 ft 187 kts 329°
2026-04-28 20:22 33.18837 44.29660 1566 ft 176 kts 329°
2026-04-28 20:23 33.19849 44.28968 1343 ft 159 kts 329°
2026-04-28 20:23 33.20749 44.28352 1150 ft 143 kts 329°
2026-04-28 20:23 33.21611 44.27761 969 ft 143 kts 329°
2026-04-28 20:23 33.22180 44.27375 845 ft 143 kts 330°
2026-04-28 20:24 33.23328 44.26584 561 ft 142 kts 329°
2026-04-28 20:24 33.24181 44.25992 459 ft 143 kts 330°
2026-04-28 20:24 33.24748 44.25599 314 ft 141 kts 330°
2026-04-28 20:24 33.25312 44.25218 190 ft 140 kts 331°